Location: Beetenbrück
(52.8113°N, 9.5946°E)
Time: 21:37:59
(UTC+00:00)

NOSS 3-1 (C) - Pass Details

Date: 14 April 2026
Orbit: 618 x 1583 km, 63.4° (Epoch: 10 January)

Event Time Altitude Azimuth Distance (km) Brightness Sun altitude
Rises 21:48:59 0° 313° (NW) 3,634 7.6 -24.4°
Reaches altitude 10° 21:51:18 10° 312° (NW) 2,808 6.8 -24.6°
Maximum altitude 21:58:04 79° 227° (SW) 1,232 3.9 -25.0°
Enters shadow 22:00:38 48° 151° (SSE) 1,624 4.1 -25.2°
